{"data":{"norad_id":66530,"epoch":"2026-05-24T21:03:00.288288Z","epoch_age_seconds":85341,"freshness":"FRESH","line1":"1 66530U 25265Q   26144.87708667  .00013406  00000+0  49539-3 0  9992","line2":"2 66530  42.9981 207.8147 0000969 293.5322  66.5427 15.27606502 28761","mean_motion":15.27606502,"eccentricity":9.69e-5,"inclination_deg":42.9981,"raan_deg":207.8147,"arg_perigee_deg":293.5322,"mean_anomaly_deg":66.5427,"bstar":0.00049539,"rev_number":2876,"period_min":94.265113307301,"perigee_km":482.30489942172,"apogee_km":483.63458190806,"semimajor_km":6861.1067406649,"source":"CELESTRAK","updated_at":"2026-05-25T13:38:21.252176Z"}}